Time,TemperatureF,DewpointF,PressureIn,WindDirection,WindDirectionDegrees,WindSpeedMPH,WindSpeedGustMPH,Humidity,HourlyPrecipIn,Conditions,Clouds,dailyrainin,SolarRadiationWatts/m^2,SoftwareType,DateUTC
2013-02-14 00:00:00,18.4,6.1,30.03,SE,135,1.0,3.0,58,0.00,,,0.00,0,WeatherCatV1.12B45,2013-02-14 07:00:00,
2013-02-14 00:05:00,18.4,6.1,30.03,SE,135,1.0,3.0,58,0.00,,,0.00,0,WeatherCatV1.12B45,2013-02-14 07:05:00,
2013-02-14 00:10:00,18.4,6.1,30.03,SE,135,1.0,3.0,58,0.00,,,0.00,0,WeatherCatV1.12B45,2013-02-14 07:10:00,
2013-02-14 00:15:00,18.4,6.1,30.03,SE,135,1.0,3.0,58,0.00,,,0.00,0,WeatherCatV1.12B45,2013-02-14 07:15:00,
2013-02-14 00:20:00,18.1,5.8,30.03,NE,45,0.0,5.0,58,0.00,,,0.00,0,WeatherCatV1.12B45,2013-02-14 07:20:00,
2013-02-14 00:25:00,18.1,5.8,30.03,NE,45,0.0,5.0,58,0.00,,,0.00,0,WeatherCatV1.12B45,2013-02-14 07:25:00,
2013-02-14 00:30:00,18.1,5.8,30.03,NE,45,0.0,5.0,58,0.00,,,0.00,0,WeatherCatV1.12B45,2013-02-14 07:30:00,
2013-02-14 00:35:00,19.1,6.0,30.03,North,0,1.0,6.0,56,0.00,,,0.00,0,WeatherCatV1.12B45,2013-02-14 07:35:00,
2013-02-14 00:40:00,19.1,6.0,30.03,North,0,1.0,6.0,56,0.00,,,0.00,0,WeatherCatV1.12B45,2013-02-14 07:40:00,
2013-02-14 00:45:00,19.1,6.0,30.03,North,0,1.0,6.0,56,0.00,,,0.00,0,WeatherCatV1.12B45,2013-02-14 07:45:00,
2013-02-14 00:50:00,19.9,6.4,30.02,WNW,292,1.0,8.0,55,0.00,,,0.00,0,WeatherCatV1.12B45,2013-02-14 07:50:00,
2013-02-14 00:55:00,19.9,6.4,30.02,WNW,292,1.0,8.0,55,0.00,,,0.00,0,WeatherCatV1.12B45,2013-02-14 07:55:00,
2013-02-14 01:00:00,19.9,6.4,30.02,WNW,292,1.0,8.0,55,0.00,,,0.00,0,WeatherCatV1.12B45,2013-02-14 08:00:00,
2013-02-14 01:05:00,18.8,6.1,30.02,WNW,292,2.0,5.0,57,0.00,,,0.00,0,WeatherCatV1.12B45,2013-02-14 08:05:00,
2013-02-14 01:10:00,18.8,6.1,30.02,WNW,292,2.0,5.0,57,0.00,,,0.00,0,WeatherCatV1.12B45,2013-02-14 08:10:00,
2013-02-14 01:15:00,18.8,6.1,30.02,WNW,292,2.0,5.0,57,0.00,,,0.00,0,WeatherCatV1.12B45,2013-02-14 08:15:00,
2013-02-14 01:20:00,18.3,5.6,30.02,NNE,22,1.0,6.0,57,0.00,,,0.00,0,WeatherCatV1.12B45,2013-02-14 08:20:00,
2013-02-14 01:25:00,18.3,5.6,30.02,NNE,22,1.0,6.0,57,0.00,,,0.00,0,WeatherCatV1.12B45,2013-02-14 08:25:00,
2013-02-14 01:30:00,18.3,5.6,30.02,NNE,22,1.0,6.0,57,0.00,,,0.00,0,WeatherCatV1.12B45,2013-02-14 08:30:00,
2013-02-14 01:35:00,19.7,5.8,30.02,NNE,22,3.0,10.0,54,0.00,,,0.00,0,WeatherCatV1.12B45,2013-02-14 08:35:00,
2013-02-14 01:40:00,19.7,5.8,30.02,NNE,22,3.0,10.0,54,0.00,,,0.00,0,WeatherCatV1.12B45,2013-02-14 08:40:00,
2013-02-14 01:45:00,19.7,5.8,30.02,NNE,22,3.0,10.0,54,0.00,,,0.00,0,WeatherCatV1.12B45,2013-02-14 08:45:00,
2013-02-14 01:50:00,20.5,5.3,30.01,ENE,68,3.0,8.0,51,0.00,,,0.00,0,WeatherCatV1.12B45,2013-02-14 08:50:00,
2013-02-14 01:55:00,20.5,5.3,30.01,ENE,68,3.0,8.0,51,0.00,,,0.00,0,WeatherCatV1.12B45,2013-02-14 08:55:00,
2013-02-14 02:00:00,20.5,5.3,30.01,ENE,68,3.0,8.0,51,0.00,,,0.00,0,WeatherCatV1.12B45,2013-02-14 09:00:00,
2013-02-14 02:05:00,23.5,5.3,30.00,ESE,112,5.0,14.0,45,0.00,,,0.00,0,WeatherCatV1.12B45,2013-02-14 09:05:00,
2013-02-14 02:10:00,23.5,5.3,30.00,ESE,112,5.0,14.0,45,0.00,,,0.00,0,WeatherCatV1.12B45,2013-02-14 09:10:00,
2013-02-14 02:15:00,23.5,5.3,30.00,ESE,112,5.0,14.0,45,0.00,,,0.00,0,WeatherCatV1.12B45,2013-02-14 09:15:00,
2013-02-14 02:20:00,25.0,6.2,30.01,SW,225,5.0,14.0,44,0.00,,,0.00,0,WeatherCatV1.12B45,2013-02-14 09:20:00,
2013-02-14 02:25:00,25.0,6.2,30.01,SW,225,5.0,14.0,44,0.00,,,0.00,0,WeatherCatV1.12B45,2013-02-14 09:25:00,
2013-02-14 02:30:00,25.0,6.2,30.01,SW,225,5.0,14.0,44,0.00,,,0.00,0,WeatherCatV1.12B45,2013-02-14 09:30:00,
2013-02-14 02:35:00,25.3,5.4,30.01,WNW,292,5.0,18.0,42,0.00,,,0.00,0,WeatherCatV1.12B45,2013-02-14 09:35:00,
2013-02-14 02:40:00,25.3,5.4,30.01,WNW,292,5.0,18.0,42,0.00,,,0.00,0,WeatherCatV1.12B45,2013-02-14 09:40:00,
2013-02-14 02:45:00,25.3,5.4,30.01,WNW,292,5.0,18.0,42,0.00,,,0.00,0,WeatherCatV1.12B45,2013-02-14 09:45:00,
2013-02-14 02:50:00,25.6,4.7,30.01,WSW,248,6.0,18.0,40,0.00,,,0.00,0,WeatherCatV1.12B45,2013-02-14 09:50:00,
2013-02-14 02:55:00,25.6,4.7,30.01,WSW,248,6.0,18.0,40,0.00,,,0.00,0,WeatherCatV1.12B45,2013-02-14 09:55:00,
2013-02-14 03:00:00,25.6,4.7,30.01,WSW,248,6.0,18.0,40,0.00,,,0.00,0,WeatherCatV1.12B45,2013-02-14 10:00:00,
2013-02-14 03:05:00,25.8,4.9,30.01,WSW,248,9.0,17.0,40,0.00,,,0.00,0,WeatherCatV1.12B45,2013-02-14 10:05:00,
2013-02-14 03:19:00,25.8,4.9,30.01,WSW,248,9.0,17.0,40,0.00,,,0.00,0,WeatherCatV1.12B45,2013-02-14 10:19:00,
2013-02-14 03:24:00,25.4,4.5,30.00,North,353,1.0,6.0,40,0.00,,,0.00,0,WeatherCatV1.12B45,2013-02-14 10:24:00,
2013-02-14 03:29:00,25.3,4.4,30.00,North,353,3.0,3.0,40,0.00,,,0.00,0,WeatherCatV1.12B45,2013-02-14 10:29:00,
2013-02-14 03:34:00,24.5,4.7,30.00,North,0,2.0,3.0,42,0.00,,,0.00,0,WeatherCatV1.12B45,2013-02-14 10:34:00,
2013-02-14 03:39:00,23.8,4.6,30.00,North,0,0.0,0.0,43,0.00,,,0.00,0,WeatherCatV1.12B45,2013-02-14 10:39:00,
2013-02-14 03:44:00,22.7,5.1,29.99,North,357,6.0,7.0,46,0.00,,,0.00,0,WeatherCatV1.12B45,2013-02-14 10:44:00,
2013-02-14 03:49:00,21.9,4.8,29.99,North,356,6.0,8.0,47,0.00,,,0.00,0,WeatherCatV1.12B45,2013-02-14 10:49:00,
2013-02-14 03:54:00,21.1,4.5,29.99,North,356,6.0,6.0,48,0.00,,,0.00,0,WeatherCatV1.12B45,2013-02-14 10:54:00,
2013-02-14 03:59:00,20.5,4.8,30.00,North,0,5.0,7.0,50,0.00,,,0.00,0,WeatherCatV1.12B45,2013-02-14 10:59:00,
2013-02-14 04:04:00,20.0,4.4,30.00,North,0,3.0,5.0,50,0.00,,,0.00,0,WeatherCatV1.12B45,2013-02-14 11:04:00,
2013-02-14 04:09:00,19.7,4.5,30.00,North,0,2.0,3.0,51,0.00,,,0.00,0,WeatherCatV1.12B45,2013-02-14 11:09:00,
2013-02-14 04:14:00,19.4,4.3,30.00,North,0,2.0,3.0,51,0.00,,,0.00,0,WeatherCatV1.12B45,2013-02-14 11:14:00,
2013-02-14 04:19:00,18.6,3.9,30.00,North,0,0.0,2.0,52,0.00,,,0.00,0,WeatherCatV1.12B45,2013-02-14 11:19:00,
2013-02-14 04:24:00,17.8,3.6,30.00,North,0,0.0,0.0,53,0.00,,,0.00,0,WeatherCatV1.12B45,2013-02-14 11:24:00,
2013-02-14 04:29:00,17.3,3.9,30.00,North,0,0.0,0.0,55,0.00,,,0.00,0,WeatherCatV1.12B45,2013-02-14 11:29:00,
2013-02-14 04:34:00,16.9,4.0,30.00,North,0,2.0,6.0,56,0.00,,,0.00,0,WeatherCatV1.12B45,2013-02-14 11:34:00,
2013-02-14 04:39:00,16.4,3.9,30.00,North,0,0.0,0.0,57,0.00,,,0.00,0,WeatherCatV1.12B45,2013-02-14 11:39:00,
2013-02-14 04:44:00,16.1,3.6,30.00,North,0,0.0,0.0,57,0.00,,,0.00,0,WeatherCatV1.12B45,2013-02-14 11:44:00,
2013-02-14 04:49:00,15.9,4.1,30.00,North,0,0.0,0.0,59,0.00,,,0.00,0,WeatherCatV1.12B45,2013-02-14 11:49:00,
2013-02-14 04:54:00,15.9,3.8,30.00,North,0,0.0,1.0,58,0.00,,,0.00,0,WeatherCatV1.12B45,2013-02-14 11:54:00,
2013-02-14 04:59:00,15.6,3.5,30.00,North,0,0.0,0.0,58,0.00,,,0.00,0,WeatherCatV1.12B45,2013-02-14 11:59:00,
2013-02-14 05:04:00,15.7,4.0,30.00,North,0,0.0,0.0,59,0.00,,,0.00,0,WeatherCatV1.12B45,2013-02-14 12:04:00,
2013-02-14 05:09:00,15.9,4.1,30.00,North,0,0.0,0.0,59,0.00,,,0.00,0,WeatherCatV1.12B45,2013-02-14 12:09:00,
2013-02-14 05:14:00,15.9,4.1,30.01,North,0,0.0,0.0,59,0.00,,,0.00,0,WeatherCatV1.12B45,2013-02-14 12:14:00,
2013-02-14 05:18:00,15.7,4.0,30.01,North,0,1.0,1.0,59,0.00,,,0.00,0,WeatherCatV1.12B45,2013-02-14 12:18:00,
2013-02-14 05:23:00,15.6,4.2,30.01,North,0,0.0,0.0,60,0.00,,,0.00,0,WeatherCatV1.12B45,2013-02-14 12:23:00,
2013-02-14 05:28:00,15.6,4.2,30.01,North,0,2.0,3.0,60,0.00,,,0.00,0,WeatherCatV1.12B45,2013-02-14 12:28:00,
2013-02-14 05:33:00,15.6,4.6,30.01,North,0,0.0,0.0,61,0.00,,,0.00,0,WeatherCatV1.12B45,2013-02-14 12:33:00,
2013-02-14 05:38:00,15.7,4.7,30.01,North,0,4.0,6.0,61,0.00,,,0.00,0,WeatherCatV1.12B45,2013-02-14 12:38:00,
2013-02-14 05:43:00,16.1,5.1,30.01,North,0,3.0,5.0,61,0.00,,,0.00,0,WeatherCatV1.12B45,2013-02-14 12:43:00,
2013-02-14 05:48:00,16.1,5.1,30.01,North,0,2.0,3.0,61,0.00,,,0.00,0,WeatherCatV1.12B45,2013-02-14 12:48:00,
2013-02-14 05:53:00,15.9,4.9,30.01,North,0,0.0,0.0,61,0.00,,,0.00,0,WeatherCatV1.12B45,2013-02-14 12:53:00,
2013-02-14 05:58:00,15.9,4.9,30.01,North,0,0.0,0.0,61,0.00,,,0.00,0,WeatherCatV1.12B45,2013-02-14 12:58:00,
2013-02-14 06:03:00,15.7,4.7,30.02,North,0,1.0,3.0,61,0.00,,,0.00,0,WeatherCatV1.12B45,2013-02-14 13:03:00,
2013-02-14 06:08:00,15.6,4.6,30.02,North,0,0.0,0.0,61,0.00,,,0.00,0,WeatherCatV1.12B45,2013-02-14 13:08:00,
2013-02-14 06:13:00,15.6,4.6,30.02,North,0,0.0,2.0,61,0.00,,,0.00,0,WeatherCatV1.12B45,2013-02-14 13:13:00,
2013-02-14 06:18:00,15.4,4.7,30.02,North,0,0.0,0.0,62,0.00,,,0.00,0,WeatherCatV1.12B45,2013-02-14 13:18:00,
2013-02-14 06:24:00,15.4,4.7,30.02,North,357,2.0,3.0,62,0.00,,,0.00,0,WeatherCatV1.12B45,2013-02-14 13:24:00,
2013-02-14 06:29:00,15.4,4.7,30.02,NW,308,6.0,6.0,62,0.00,,,0.00,0,WeatherCatV1.12B45,2013-02-14 13:29:00,
2013-02-14 06:34:00,15.6,4.9,30.02,NW,313,3.0,3.0,62,0.00,,,0.00,0,WeatherCatV1.12B45,2013-02-14 13:34:00,
2013-02-14 06:39:00,15.7,5.0,30.02,WNW,299,0.0,0.0,62,0.00,,,0.00,0,WeatherCatV1.12B45,2013-02-14 13:39:00,
2013-02-14 06:44:00,15.9,4.9,30.02,WNW,299,4.0,5.0,61,0.00,,,0.00,0,WeatherCatV1.12B45,2013-02-14 13:44:00,
2013-02-14 06:49:00,15.7,4.7,30.02,WNW,299,0.0,0.0,61,0.00,,,0.00,0,WeatherCatV1.12B45,2013-02-14 13:49:00,
2013-02-14 06:54:00,15.2,4.6,30.02,WNW,299,1.0,3.0,62,0.00,,,0.00,0,WeatherCatV1.12B45,2013-02-14 13:54:00,
2013-02-14 06:59:00,14.6,4.7,30.02,WNW,299,3.0,3.0,64,0.00,,,0.00,5,WeatherCatV1.12B45,2013-02-14 13:59:00,
2013-02-14 07:04:00,14.4,4.8,30.02,NW,315,5.0,7.0,65,0.00,,,0.00,7,WeatherCatV1.12B45,2013-02-14 14:04:00,
2013-02-14 07:09:00,14.4,4.8,30.02,NW,315,2.0,4.0,65,0.00,,,0.00,11,WeatherCatV1.12B45,2013-02-14 14:09:00,
2013-02-14 07:14:00,14.6,5.0,30.02,NW,315,0.0,0.0,65,0.00,,,0.00,12,WeatherCatV1.12B45,2013-02-14 14:14:00,
2013-02-14 07:19:00,14.6,5.0,30.03,NW,315,0.0,0.0,65,0.00,,,0.00,21,WeatherCatV1.12B45,2013-02-14 14:19:00,
2013-02-14 07:24:00,15.1,5.1,30.03,NW,315,5.0,5.0,64,0.00,,,0.00,72,WeatherCatV1.12B45,2013-02-14 14:24:00,
2013-02-14 07:29:00,15.7,5.0,30.03,NNW,347,2.0,3.0,62,0.00,,,0.00,62,WeatherCatV1.12B45,2013-02-14 14:29:00,
2013-02-14 07:34:00,16.4,5.7,30.03,NNW,347,2.0,3.0,62,0.00,,,0.00,106,WeatherCatV1.12B45,2013-02-14 14:34:00,
2013-02-14 07:39:00,17.3,6.2,30.03,NNW,347,0.0,0.0,61,0.00,,,0.00,137,WeatherCatV1.12B45,2013-02-14 14:39:00,
2013-02-14 07:44:00,18.6,6.7,30.03,NNW,347,0.0,0.0,59,0.00,,,0.00,153,WeatherCatV1.12B45,2013-02-14 14:44:00,
2013-02-14 07:49:00,20.0,7.2,30.03,NNW,347,0.0,0.0,57,0.00,,,0.00,176,WeatherCatV1.12B45,2013-02-14 14:49:00,
2013-02-14 07:54:00,21.3,7.7,30.03,NNW,347,0.0,0.0,55,0.00,,,0.00,190,WeatherCatV1.12B45,2013-02-14 14:54:00,
2013-02-14 07:59:00,22.4,7.9,30.03,NNW,347,0.0,0.0,53,0.00,,,0.00,187,WeatherCatV1.12B45,2013-02-14 14:59:00,
2013-02-14 08:04:00,23.5,8.5,30.03,NNW,347,0.0,0.0,52,0.00,,,0.00,223,WeatherCatV1.12B45,2013-02-14 15:04:00,
2013-02-14 08:09:00,25.1,8.7,30.03,NNW,347,2.0,2.0,49,0.00,,,0.00,230,WeatherCatV1.12B45,2013-02-14 15:09:00,
2013-02-14 08:14:00,25.1,8.7,30.03,WNW,299,3.0,3.0,49,0.00,,,0.00,236,WeatherCatV1.12B45,2013-02-14 15:14:00,
2013-02-14 08:19:00,25.4,8.5,30.03,WSW,241,1.0,7.0,48,0.00,,,0.00,260,WeatherCatV1.12B45,2013-02-14 15:19:00,
2013-02-14 08:24:00,26.0,8.1,30.03,SSE,165,3.0,6.0,46,0.00,,,0.00,266,WeatherCatV1.12B45,2013-02-14 15:24:00,
2013-02-14 08:29:00,26.6,8.2,30.03,SSE,164,2.0,5.0,45,0.00,,,0.00,287,WeatherCatV1.12B45,2013-02-14 15:29:00,
2013-02-14 08:34:00,27.5,8.5,30.03,SSE,162,2.0,6.0,44,0.00,,,0.00,301,WeatherCatV1.12B45,2013-02-14 15:34:00,
2013-02-14 08:39:00,28.4,8.8,30.03,SSE,162,1.0,2.0,43,0.00,,,0.00,313,WeatherCatV1.12B45,2013-02-14 15:39:00,
2013-02-14 08:44:00,28.5,8.4,30.03,SE,141,6.0,9.0,42,0.00,,,0.00,329,WeatherCatV1.12B45,2013-02-14 15:44:00,
2013-02-14 08:49:00,28.8,8.6,30.03,SE,124,3.0,10.0,42,0.00,,,0.00,343,WeatherCatV1.12B45,2013-02-14 15:49:00,
2013-02-14 08:54:00,28.8,8.1,30.03,SSE,155,7.0,8.0,41,0.00,,,0.00,362,WeatherCatV1.12B45,2013-02-14 15:54:00,
2013-02-14 08:59:00,28.7,8.5,30.03,SE,141,6.0,7.0,42,0.00,,,0.00,417,WeatherCatV1.12B45,2013-02-14 15:59:00,
2013-02-14 09:04:00,29.0,8.8,30.04,SE,141,3.0,10.0,42,0.00,,,0.00,544,WeatherCatV1.12B45,2013-02-14 16:04:00,
2013-02-14 09:09:00,29.7,10.0,30.04,East,95,6.0,7.0,43,0.00,,,0.00,568,WeatherCatV1.12B45,2013-02-14 16:09:00,
2013-02-14 09:14:00,30.6,10.8,30.04,SE,128,8.0,13.0,43,0.00,,,0.00,589,WeatherCatV1.12B45,2013-02-14 16:14:00,
2013-02-14 09:19:00,30.7,10.9,30.05,ESE,123,6.0,12.0,43,0.00,,,0.00,517,WeatherCatV1.12B45,2013-02-14 16:19:00,
2013-02-14 09:24:00,30.4,10.6,30.05,ESE,123,5.0,7.0,43,0.00,,,0.00,452,WeatherCatV1.12B45,2013-02-14 16:24:00,
2013-02-14 09:29:00,30.3,10.5,30.05,South,169,4.0,11.0,43,0.00,,,0.00,297,WeatherCatV1.12B45,2013-02-14 16:29:00,
2013-02-14 09:34:00,30.0,11.3,30.05,SE,130,9.0,12.0,45,0.00,,,0.00,387,WeatherCatV1.12B45,2013-02-14 16:34:00,
2013-02-14 09:39:00,30.0,11.3,30.05,ESE,107,11.0,14.0,45,0.00,,,0.00,396,WeatherCatV1.12B45,2013-02-14 16:39:00,
2013-02-14 09:44:00,30.0,10.8,30.05,SE,136,14.0,14.0,44,0.00,,,0.00,294,WeatherCatV1.12B45,2013-02-14 16:44:00,
2013-02-14 09:49:00,30.0,10.8,30.06,ESE,117,12.0,14.0,44,0.00,,,0.00,528,WeatherCatV1.12B45,2013-02-14 16:49:00,
2013-02-14 09:54:00,30.6,11.8,30.06,East,89,5.0,7.0,45,0.00,,,0.00,644,WeatherCatV1.12B45,2013-02-14 16:54:00,
2013-02-14 09:59:00,31.0,11.2,30.06,East,88,5.0,12.0,43,0.00,,,0.00,656,WeatherCatV1.12B45,2013-02-14 16:59:00,
2013-02-14 10:04:00,31.8,10.8,30.05,SE,134,12.0,16.0,41,0.00,,,0.00,669,WeatherCatV1.12B45,2013-02-14 17:04:00,
2013-02-14 10:09:00,31.8,10.8,30.05,ESE,119,14.0,14.0,41,0.00,,,0.00,669,WeatherCatV1.12B45,2013-02-14 17:09:00,
2013-02-14 10:14:00,31.2,10.8,30.05,East,88,5.0,9.0,42,0.00,,,0.00,238,WeatherCatV1.12B45,2013-02-14 17:14:00,
2013-02-14 10:19:00,31.3,10.4,30.05,East,99,6.0,8.0,41,0.00,,,0.00,238,WeatherCatV1.12B45,2013-02-14 17:19:00,
2013-02-14 10:24:00,31.9,9.8,30.05,ESE,117,3.0,12.0,39,0.00,,,0.00,709,WeatherCatV1.12B45,2013-02-14 17:24:00,
2013-02-14 10:29:00,32.4,10.8,30.05,SE,137,9.0,13.0,40,0.00,,,0.00,644,WeatherCatV1.12B45,2013-02-14 17:29:00,
2013-02-14 10:34:00,32.9,11.3,30.05,SE,124,6.0,13.0,40,0.00,,,0.00,785,WeatherCatV1.12B45,2013-02-14 17:34:00,
2013-02-14 10:39:00,33.1,11.4,30.05,ESE,121,10.0,14.0,40,0.00,,,0.00,725,WeatherCatV1.12B45,2013-02-14 17:39:00,
2013-02-14 10:44:00,32.4,10.8,30.05,ESE,119,7.0,8.0,40,0.00,,,0.00,778,WeatherCatV1.12B45,2013-02-14 17:44:00,
2013-02-14 10:49:00,33.5,10.0,30.05,ESE,110,5.0,8.0,37,0.00,,,0.00,762,WeatherCatV1.12B45,2013-02-14 17:49:00,
2013-02-14 10:54:00,33.8,9.1,30.05,SE,141,3.0,4.0,35,0.00,,,0.00,815,WeatherCatV1.12B45,2013-02-14 17:54:00,
2013-02-14 10:59:00,33.2,9.2,30.05,SE,141,3.0,5.0,36,0.00,,,0.00,815,WeatherCatV1.12B45,2013-02-14 17:59:00,
2013-02-14 11:04:00,33.5,6.1,30.05,SE,141,0.0,0.0,31,0.00,,,0.00,822,WeatherCatV1.12B45,2013-02-14 18:04:00,
2013-02-14 11:09:00,34.4,6.9,30.05,ENE,76,5.0,6.0,31,0.00,,,0.00,741,WeatherCatV1.12B45,2013-02-14 18:09:00,
2013-02-14 11:14:00,35.6,4.1,30.05,SSW,200,4.0,14.0,26,0.00,,,0.00,785,WeatherCatV1.12B45,2013-02-14 18:14:00,
2013-02-14 11:19:00,34.7,4.2,30.05,West,260,7.0,12.0,27,0.00,,,0.00,795,WeatherCatV1.12B45,2013-02-14 18:19:00,
2013-02-14 11:24:00,34.9,4.4,30.05,SW,219,6.0,13.0,27,0.00,,,0.00,827,WeatherCatV1.12B45,2013-02-14 18:24:00,
2013-02-14 11:29:00,35.0,3.6,30.05,NW,319,10.0,16.0,26,0.00,,,0.00,848,WeatherCatV1.12B45,2013-02-14 18:29:00,
2013-02-14 11:34:00,34.4,3.9,30.05,West,265,13.0,21.0,27,0.00,,,0.00,852,WeatherCatV1.12B45,2013-02-14 18:34:00,
2013-02-14 11:39:00,34.9,3.5,30.05,West,268,13.0,13.0,26,0.00,,,0.00,704,WeatherCatV1.12B45,2013-02-14 18:39:00,
2013-02-14 11:44:00,35.0,4.4,30.05,WNW,294,16.0,16.0,27,0.00,,,0.00,811,WeatherCatV1.12B45,2013-02-14 18:44:00,
2013-02-14 11:49:00,34.9,5.1,30.05,West,271,11.0,21.0,28,0.00,,,0.00,753,WeatherCatV1.12B45,2013-02-14 18:49:00,
2013-02-14 11:54:00,34.6,4.9,30.05,WSW,244,7.0,18.0,28,0.00,,,0.00,771,WeatherCatV1.12B45,2013-02-14 18:54:00,
2013-02-14 11:59:00,35.3,4.7,30.05,SW,233,16.0,17.0,27,0.00,,,0.00,918,WeatherCatV1.12B45,2013-02-14 18:59:00,
2013-02-14 12:04:00,35.8,3.5,30.05,West,261,8.0,18.0,25,0.00,,,0.00,565,WeatherCatV1.12B45,2013-02-14 19:04:00,
2013-02-14 12:09:00,34.9,5.1,30.05,WNW,295,13.0,20.0,28,0.00,,,0.00,860,WeatherCatV1.12B45,2013-02-14 19:09:00,
2013-02-14 12:14:00,34.3,6.1,30.05,WSW,244,13.0,19.0,30,0.00,,,0.00,915,WeatherCatV1.12B45,2013-02-14 19:14:00,
2013-02-14 12:19:00,34.4,4.7,30.05,SW,219,16.0,21.0,28,0.00,,,0.00,906,WeatherCatV1.12B45,2013-02-14 19:19:00,
2013-02-14 12:24:00,35.0,4.4,30.05,WSW,248,16.0,26.0,27,0.00,,,0.00,841,WeatherCatV1.12B45,2013-02-14 19:24:00,
2013-02-14 12:29:00,34.6,4.9,30.05,WSW,251,11.0,25.0,28,0.00,,,0.00,883,WeatherCatV1.12B45,2013-02-14 19:29:00,
2013-02-14 12:34:00,34.1,4.4,30.05,West,261,4.0,18.0,28,0.00,,,0.00,375,WeatherCatV1.12B45,2013-02-14 19:34:00,
2013-02-14 12:39:00,35.0,4.4,30.05,SW,233,20.0,20.0,27,0.00,,,0.00,897,WeatherCatV1.12B45,2013-02-14 19:39:00,
2013-02-14 12:44:00,34.7,4.2,30.04,SSW,200,8.0,16.0,27,0.00,,,0.00,734,WeatherCatV1.12B45,2013-02-14 19:44:00,
2013-02-14 12:49:00,34.1,4.4,30.04,West,267,16.0,21.0,28,0.00,,,0.00,347,WeatherCatV1.12B45,2013-02-14 19:49:00,
2013-02-14 12:54:00,34.7,3.4,30.04,NW,308,8.0,21.0,26,0.00,,,0.00,867,WeatherCatV1.12B45,2013-02-14 19:54:00,
2013-02-14 12:59:00,35.3,5.5,30.04,SW,224,13.0,19.0,28,0.00,,,0.00,706,WeatherCatV1.12B45,2013-02-14 19:59:00,
2013-02-14 13:04:00,35.3,4.7,30.04,West,267,21.0,22.0,27,0.00,,,0.00,648,WeatherCatV1.12B45,2013-02-14 20:04:00,
2013-02-14 13:09:00,35.5,3.2,30.04,NW,325,6.0,24.0,25,0.00,,,0.00,767,WeatherCatV1.12B45,2013-02-14 20:09:00,
2013-02-14 13:14:00,35.8,4.3,30.04,WNW,291,15.0,15.0,26,0.00,,,0.00,681,WeatherCatV1.12B45,2013-02-14 20:14:00,
2013-02-14 13:19:00,36.0,3.6,30.04,NW,323,11.0,17.0,25,0.00,,,0.00,820,WeatherCatV1.12B45,2013-02-14 20:19:00,
2013-02-14 13:24:00,36.0,3.6,30.04,WNW,282,11.0,14.0,25,0.00,,,0.00,269,WeatherCatV1.12B45,2013-02-14 20:24:00,
2013-02-14 13:29:00,35.8,3.5,30.04,West,260,7.0,21.0,25,0.00,,,0.00,591,WeatherCatV1.12B45,2013-02-14 20:29:00,
2013-02-14 13:34:00,35.5,3.2,30.04,South,179,2.0,13.0,25,0.00,,,0.00,167,WeatherCatV1.12B45,2013-02-14 20:34:00,
2013-02-14 13:39:00,35.3,3.9,30.04,WNW,282,7.0,13.0,26,0.00,,,0.00,677,WeatherCatV1.12B45,2013-02-14 20:39:00,
2013-02-14 13:44:00,35.6,3.3,30.04,WNW,299,6.0,17.0,25,0.00,,,0.00,667,WeatherCatV1.12B45,2013-02-14 20:44:00,
2013-02-14 13:49:00,35.3,3.9,30.04,SW,217,8.0,18.0,26,0.00,,,0.00,637,WeatherCatV1.12B45,2013-02-14 20:49:00,
2013-02-14 13:54:00,34.9,3.5,30.04,WSW,247,17.0,19.0,26,0.00,,,0.00,621,WeatherCatV1.12B45,2013-02-14 20:54:00,
2013-02-14 13:59:00,35.2,2.9,30.04,West,260,6.0,24.0,25,0.00,,,0.00,614,WeatherCatV1.12B45,2013-02-14 20:59:00,
2013-02-14 14:04:00,35.0,1.9,30.04,West,267,12.0,25.0,24,0.00,,,0.00,602,WeatherCatV1.12B45,2013-02-14 21:04:00,
2013-02-14 14:09:00,35.0,1.9,30.04,West,270,13.0,17.0,24,0.00,,,0.00,588,WeatherCatV1.12B45,2013-02-14 21:09:00,
2013-02-14 14:14:00,35.3,2.2,30.04,West,272,20.0,20.0,24,0.00,,,0.00,570,WeatherCatV1.12B45,2013-02-14 21:14:00,
2013-02-14 14:19:00,35.2,3.8,30.04,West,264,13.0,25.0,26,0.00,,,0.00,560,WeatherCatV1.12B45,2013-02-14 21:19:00,
2013-02-14 14:24:00,34.7,5.0,30.04,WSW,256,19.0,24.0,28,0.00,,,0.00,554,WeatherCatV1.12B45,2013-02-14 21:24:00,
2013-02-14 14:29:00,34.6,4.9,30.05,WSW,256,18.0,20.0,28,0.00,,,0.00,533,WeatherCatV1.12B45,2013-02-14 21:29:00,
2013-02-14 14:34:00,34.9,5.1,30.05,SW,234,6.0,22.0,28,0.00,,,0.00,524,WeatherCatV1.12B45,2013-02-14 21:34:00,
2013-02-14 14:39:00,35.3,5.5,30.05,WSW,244,5.0,19.0,28,0.00,,,0.00,523,WeatherCatV1.12B45,2013-02-14 21:39:00,
2013-02-14 14:44:00,34.9,5.9,30.05,WNW,294,14.0,22.0,29,0.00,,,0.00,503,WeatherCatV1.12B45,2013-02-14 21:44:00,
2013-02-14 14:49:00,34.0,5.9,30.05,West,271,13.0,18.0,30,0.00,,,0.00,498,WeatherCatV1.12B45,2013-02-14 21:49:00,
2013-02-14 14:54:00,34.0,7.3,30.05,WSW,256,12.0,17.0,32,0.00,,,0.00,482,WeatherCatV1.12B45,2013-02-14 21:54:00,
2013-02-14 14:59:00,34.1,7.4,30.06,West,278,17.0,22.0,32,0.00,,,0.00,475,WeatherCatV1.12B45,2013-02-14 21:59:00,
2013-02-14 15:04:00,34.0,7.3,30.06,WSW,256,11.0,19.0,32,0.00,,,0.00,465,WeatherCatV1.12B45,2013-02-14 22:04:00,
2013-02-14 15:09:00,34.1,6.7,30.06,WNW,296,10.0,14.0,31,0.00,,,0.00,443,WeatherCatV1.12B45,2013-02-14 22:09:00,
2013-02-14 15:14:00,33.5,8.2,30.06,WSW,239,14.0,18.0,34,0.00,,,0.00,426,WeatherCatV1.12B45,2013-02-14 22:14:00,
2013-02-14 15:19:00,33.4,7.4,30.06,SW,232,14.0,21.0,33,0.00,,,0.00,410,WeatherCatV1.12B45,2013-02-14 22:19:00,
2013-02-14 15:24:00,32.9,8.3,30.06,WSW,241,8.0,14.0,35,0.00,,,0.00,396,WeatherCatV1.12B45,2013-02-14 22:24:00,
2013-02-14 15:29:00,32.5,8.5,30.07,SW,227,7.0,20.0,36,0.00,,,0.00,380,WeatherCatV1.12B45,2013-02-14 22:29:00,
2013-02-14 15:34:00,32.4,9.1,30.07,WSW,246,7.0,28.0,37,0.00,,,0.00,329,WeatherCatV1.12B45,2013-02-14 22:34:00,
2013-02-14 15:39:00,31.8,9.1,30.07,West,271,11.0,18.0,38,0.00,,,0.00,341,WeatherCatV1.12B45,2013-02-14 22:39:00,
2013-02-14 15:44:00,31.0,10.1,30.07,NW,304,12.0,18.0,41,0.00,,,0.00,329,WeatherCatV1.12B45,2013-02-14 22:44:00,
2013-02-14 15:49:00,30.7,10.9,30.07,West,270,9.0,22.0,43,0.00,,,0.00,225,WeatherCatV1.12B45,2013-02-14 22:49:00,
2013-02-14 15:54:00,30.0,12.2,30.07,NNW,333,12.0,18.0,47,0.00,,,0.00,211,WeatherCatV1.12B45,2013-02-14 22:54:00,
2013-02-14 15:59:00,29.1,11.9,30.07,WSW,246,14.0,19.0,48,0.00,,,0.00,91,WeatherCatV1.12B45,2013-02-14 22:59:00,
2013-02-14 16:04:00,28.4,11.2,30.07,West,274,8.0,16.0,48,0.00,,,0.00,120,WeatherCatV1.12B45,2013-02-14 23:04:00,
2013-02-14 16:09:00,28.1,12.8,30.07,WSW,251,17.0,24.0,52,0.00,,,0.00,39,WeatherCatV1.12B45,2013-02-14 23:09:00,
2013-02-14 16:14:00,28.1,13.2,30.08,WSW,254,11.0,11.0,53,0.00,,,0.00,158,WeatherCatV1.12B45,2013-02-14 23:14:00,
2013-02-14 16:19:00,27.8,12.5,30.08,West,270,18.0,18.0,52,0.00,,,0.00,35,WeatherCatV1.12B45,2013-02-14 23:19:00,
2013-02-14 16:24:00,27.6,12.7,30.08,NW,311,14.0,16.0,53,0.00,,,0.00,67,WeatherCatV1.12B45,2013-02-14 23:24:00,
2013-02-14 16:29:00,27.6,13.2,30.08,WSW,250,8.0,14.0,54,0.00,,,0.00,97,WeatherCatV1.12B45,2013-02-14 23:29:00,
2013-02-14 16:34:00,27.5,12.6,30.08,WSW,239,9.0,12.0,53,0.00,,,0.00,30,WeatherCatV1.12B45,2013-02-14 23:34:00,
2013-02-14 16:39:00,27.6,11.4,30.08,WSW,251,16.0,16.0,50,0.00,,,0.00,40,WeatherCatV1.12B45,2013-02-14 23:39:00,
2013-02-14 16:44:00,27.8,10.7,30.08,WSW,251,13.0,19.0,48,0.00,,,0.00,28,WeatherCatV1.12B45,2013-02-14 23:44:00,
2013-02-14 16:49:00,27.9,10.3,30.08,WNW,292,12.0,16.0,47,0.00,,,0.00,23,WeatherCatV1.12B45,2013-02-14 23:49:00,
2013-02-14 16:54:00,27.8,10.7,30.08,WNW,292,10.0,14.0,48,0.00,,,0.00,21,WeatherCatV1.12B45,2013-02-14 23:54:00,
2013-02-14 16:59:00,27.6,10.5,30.08,WNW,287,11.0,18.0,48,0.00,,,0.00,19,WeatherCatV1.12B45,2013-02-14 23:59:00,
2013-02-14 17:04:00,27.5,10.4,30.08,WSW,256,5.0,11.0,48,0.00,,,0.00,18,WeatherCatV1.12B45,2013-02-15 00:04:00,
2013-02-14 17:09:00,27.3,10.7,30.08,West,267,3.0,12.0,49,0.00,,,0.00,16,WeatherCatV1.12B45,2013-02-15 00:09:00,
2013-02-14 17:14:00,27.2,11.1,30.09,West,280,5.0,13.0,50,0.00,,,0.00,14,WeatherCatV1.12B45,2013-02-15 00:14:00,
2013-02-14 17:19:00,27.0,10.9,30.09,WSW,254,10.0,12.0,50,0.00,,,0.00,12,WeatherCatV1.12B45,2013-02-15 00:19:00,
2013-02-14 17:24:00,26.9,11.2,30.09,WNW,298,10.0,13.0,51,0.00,,,0.00,12,WeatherCatV1.12B45,2013-02-15 00:24:00,
2013-02-14 17:29:00,26.7,11.9,30.09,WNW,294,5.0,12.0,53,0.00,,,0.00,11,WeatherCatV1.12B45,2013-02-15 00:29:00,
2013-02-14 17:34:00,26.3,13.2,30.09,NW,311,12.0,16.0,57,0.00,,,0.00,9,WeatherCatV1.12B45,2013-02-15 00:34:00,
2013-02-14 17:39:00,26.0,12.9,30.09,WNW,302,10.0,12.0,57,0.00,,,0.00,7,WeatherCatV1.12B45,2013-02-15 00:39:00,
2013-02-14 17:44:00,25.8,13.1,30.09,WNW,298,8.0,12.0,58,0.00,,,0.00,5,WeatherCatV1.12B45,2013-02-15 00:44:00,
2013-02-14 17:49:00,25.8,11.5,30.09,WSW,246,10.0,14.0,54,0.00,,,0.00,0,WeatherCatV1.12B45,2013-02-15 00:49:00,
2013-02-14 17:54:00,25.8,11.5,30.09,WSW,246,8.0,16.0,54,0.00,,,0.00,0,WeatherCatV1.12B45,2013-02-15 00:54:00,
2013-02-14 17:59:00,25.8,12.3,30.09,West,274,8.0,8.0,56,0.00,,,0.00,0,WeatherCatV1.12B45,2013-02-15 00:59:00,
2013-02-14 18:04:00,25.7,11.8,30.09,WSW,257,8.0,11.0,55,0.00,,,0.00,0,WeatherCatV1.12B45,2013-02-15 01:04:00,
2013-02-14 18:09:00,25.7,11.4,30.09,WSW,250,6.0,8.0,54,0.00,,,0.00,0,WeatherCatV1.12B45,2013-02-15 01:09:00,
2013-02-14 18:14:00,25.6,10.9,30.09,WSW,237,7.0,12.0,53,0.00,,,0.00,0,WeatherCatV1.12B45,2013-02-15 01:14:00,
2013-02-14 18:19:00,25.4,10.7,30.09,SW,216,3.0,3.0,53,0.00,,,0.00,0,WeatherCatV1.12B45,2013-02-15 01:19:00,
2013-02-14 18:24:00,25.4,10.7,30.09,WSW,254,5.0,8.0,53,0.00,,,0.00,0,WeatherCatV1.12B45,2013-02-15 01:24:00,
2013-02-14 18:29:00,25.1,10.4,30.10,SW,234,2.0,10.0,53,0.00,,,0.00,0,WeatherCatV1.12B45,2013-02-15 01:29:00,
2013-02-14 18:34:00,25.0,10.3,30.10,WSW,253,4.0,12.0,53,0.00,,,0.00,0,WeatherCatV1.12B45,2013-02-15 01:34:00,
2013-02-14 18:39:00,24.8,9.7,30.10,WSW,243,7.0,14.0,52,0.00,,,0.00,0,WeatherCatV1.12B45,2013-02-15 01:39:00,
2013-02-14 18:44:00,24.8,10.1,30.10,WSW,253,14.0,14.0,53,0.00,,,0.00,0,WeatherCatV1.12B45,2013-02-15 01:44:00,
2013-02-14 18:49:00,24.8,9.3,30.10,WNW,285,3.0,17.0,51,0.00,,,0.00,0,WeatherCatV1.12B45,2013-02-15 01:49:00,
2013-02-14 18:54:00,24.8,8.8,30.10,NW,308,6.0,11.0,50,0.00,,,0.00,0,WeatherCatV1.12B45,2013-02-15 01:54:00,
2013-02-14 18:59:00,24.7,8.7,30.11,SSW,198,6.0,13.0,50,0.00,,,0.00,0,WeatherCatV1.12B45,2013-02-15 01:59:00,
2013-02-14 19:04:00,24.7,8.7,30.11,WSW,246,7.0,13.0,50,0.00,,,0.00,0,WeatherCatV1.12B45,2013-02-15 02:04:00,
2013-02-14 19:09:00,24.7,8.3,30.11,WNW,288,7.0,10.0,49,0.00,,,0.00,0,WeatherCatV1.12B45,2013-02-15 02:09:00,
2013-02-14 19:14:00,24.7,7.8,30.11,SW,215,12.0,13.0,48,0.00,,,0.00,0,WeatherCatV1.12B45,2013-02-15 02:14:00,
2013-02-14 19:19:00,24.7,7.4,30.11,WSW,258,10.0,13.0,47,0.00,,,0.00,0,WeatherCatV1.12B45,2013-02-15 02:19:00,
2013-02-14 19:24:00,24.7,7.4,30.11,WNW,287,4.0,12.0,47,0.00,,,0.00,0,WeatherCatV1.12B45,2013-02-15 02:24:00,
2013-02-14 19:29:00,24.5,7.2,30.12,SW,216,7.0,8.0,47,0.00,,,0.00,0,WeatherCatV1.12B45,2013-02-15 02:29:00,
2013-02-14 19:34:00,24.4,7.1,30.12,WSW,254,2.0,7.0,47,0.00,,,0.00,0,WeatherCatV1.12B45,2013-02-15 02:34:00,
2013-02-14 19:39:00,24.2,6.9,30.12,SSW,212,11.0,11.0,47,0.00,,,0.00,0,WeatherCatV1.12B45,2013-02-15 02:39:00,
2013-02-14 19:44:00,24.2,6.0,30.12,SSW,203,8.0,10.0,45,0.00,,,0.00,0,WeatherCatV1.12B45,2013-02-15 02:44:00,
2013-02-14 19:49:00,24.4,6.1,30.12,SSW,203,8.0,13.0,45,0.00,,,0.00,0,WeatherCatV1.12B45,2013-02-15 02:49:00,
2013-02-14 19:54:00,24.2,6.9,30.12,SW,215,3.0,4.0,47,0.00,,,0.00,0,WeatherCatV1.12B45,2013-02-15 02:54:00,
2013-02-14 19:59:00,24.1,6.8,30.12,SSW,198,9.0,16.0,47,0.00,,,0.00,0,WeatherCatV1.12B45,2013-02-15 02:59:00,
2013-02-14 20:04:00,23.9,7.6,30.12,SSW,213,8.0,12.0,49,0.00,,,0.00,0,WeatherCatV1.12B45,2013-02-15 03:04:00,
2013-02-14 20:05:00,23.8,7.0,30.12,SSW,205,7.0,12.0,48,0.00,,,0.00,0,WeatherCatV1.12B45,2013-02-15 03:05:00,
2013-02-14 20:09:00,23.6,6.8,30.12,SSW,212,4.0,14.0,48,0.00,,,0.00,0,WeatherCatV1.12B45,2013-02-15 03:09:00,
2013-02-14 20:10:00,23.8,7.0,30.12,SSW,205,7.0,12.0,48,0.00,,,0.00,0,WeatherCatV1.12B45,2013-02-15 03:10:00,
2013-02-14 20:15:00,23.6,6.4,30.12,SSW,202,7.0,14.0,47,0.00,,,0.00,0,WeatherCatV1.12B45,2013-02-15 03:15:00,
2013-02-14 20:20:00,23.6,6.4,30.12,SSW,202,7.0,14.0,47,0.00,,,0.00,0,WeatherCatV1.12B45,2013-02-15 03:20:00,
2013-02-14 20:25:00,23.6,6.4,30.12,SSW,202,7.0,14.0,47,0.00,,,0.00,0,WeatherCatV1.12B45,2013-02-15 03:25:00,
2013-02-14 20:30:00,23.6,6.4,30.12,SSW,202,7.0,14.0,47,0.00,,,0.00,0,WeatherCatV1.12B45,2013-02-15 03:30:00,
2013-02-14 20:35:00,23.5,6.3,30.12,SSW,202,5.0,13.0,47,0.00,,,0.00,0,WeatherCatV1.12B45,2013-02-15 03:35:00,
2013-02-14 20:40:00,23.5,6.3,30.12,SSW,202,5.0,13.0,47,0.00,,,0.00,0,WeatherCatV1.12B45,2013-02-15 03:40:00,
2013-02-14 20:45:00,23.5,6.3,30.12,SSW,202,5.0,13.0,47,0.00,,,0.00,0,WeatherCatV1.12B45,2013-02-15 03:45:00,
2013-02-14 20:50:00,23.2,6.5,30.11,SSW,202,6.0,12.0,48,0.00,,,0.00,0,WeatherCatV1.12B45,2013-02-15 03:50:00,
2013-02-14 20:55:00,23.2,6.5,30.11,SSW,202,6.0,12.0,48,0.00,,,0.00,0,WeatherCatV1.12B45,2013-02-15 03:55:00,
2013-02-14 21:00:00,23.2,6.5,30.11,SSW,202,6.0,12.0,48,0.00,,,0.00,0,WeatherCatV1.12B45,2013-02-15 04:00:00,
2013-02-14 21:05:00,22.9,6.2,30.12,SSW,202,6.0,13.0,48,0.00,,,0.00,0,WeatherCatV1.12B45,2013-02-15 04:05:00,
2013-02-14 21:10:00,22.9,6.2,30.12,SSW,202,6.0,13.0,48,0.00,,,0.00,0,WeatherCatV1.12B45,2013-02-15 04:10:00,
2013-02-14 21:15:00,22.9,6.2,30.12,SSW,202,6.0,13.0,48,0.00,,,0.00,0,WeatherCatV1.12B45,2013-02-15 04:15:00,
2013-02-14 21:20:00,22.9,6.2,30.12,SSW,202,7.0,14.0,48,0.00,,,0.00,0,WeatherCatV1.12B45,2013-02-15 04:20:00,
2013-02-14 21:25:00,22.9,6.2,30.12,SSW,202,7.0,14.0,48,0.00,,,0.00,0,WeatherCatV1.12B45,2013-02-15 04:25:00,
2013-02-14 21:30:00,22.9,6.2,30.12,SSW,202,7.0,14.0,48,0.00,,,0.00,0,WeatherCatV1.12B45,2013-02-15 04:30:00,
2013-02-14 21:35:00,23.0,5.8,30.12,SSW,202,6.0,14.0,47,0.00,,,0.00,0,WeatherCatV1.12B45,2013-02-15 04:35:00,
2013-02-14 21:40:00,23.0,5.8,30.12,SSW,202,6.0,14.0,47,0.00,,,0.00,0,WeatherCatV1.12B45,2013-02-15 04:40:00,
2013-02-14 21:45:00,23.0,5.8,30.12,SSW,202,6.0,14.0,47,0.00,,,0.00,0,WeatherCatV1.12B45,2013-02-15 04:45:00,
2013-02-14 21:50:00,23.3,5.1,30.12,SSW,202,6.0,13.0,45,0.00,,,0.00,0,WeatherCatV1.12B45,2013-02-15 04:50:00,
2013-02-14 21:55:00,23.3,5.1,30.12,SSW,202,6.0,13.0,45,0.00,,,0.00,0,WeatherCatV1.12B45,2013-02-15 04:55:00,
2013-02-14 22:00:00,23.3,5.1,30.12,SSW,202,6.0,13.0,45,0.00,,,0.00,0,WeatherCatV1.12B45,2013-02-15 05:00:00,
2013-02-14 22:05:00,22.9,4.8,30.12,SW,225,5.0,12.0,45,0.00,,,0.00,0,WeatherCatV1.12B45,2013-02-15 05:05:00,
2013-02-14 22:10:00,22.9,4.8,30.12,SW,225,5.0,12.0,45,0.00,,,0.00,0,WeatherCatV1.12B45,2013-02-15 05:10:00,
2013-02-14 22:15:00,22.9,4.8,30.12,SW,225,5.0,12.0,45,0.00,,,0.00,0,WeatherCatV1.12B45,2013-02-15 05:15:00,
2013-02-14 22:20:00,22.5,4.4,30.12,SW,225,5.0,12.0,45,0.00,,,0.00,0,WeatherCatV1.12B45,2013-02-15 05:20:00,
2013-02-14 22:25:00,22.5,4.4,30.12,SW,225,5.0,12.0,45,0.00,,,0.00,0,WeatherCatV1.12B45,2013-02-15 05:25:00,
2013-02-14 22:30:00,22.5,4.4,30.12,SW,225,5.0,12.0,45,0.00,,,0.00,0,WeatherCatV1.12B45,2013-02-15 05:30:00,
2013-02-14 22:35:00,22.1,4.5,30.12,SSW,202,3.0,7.0,46,0.00,,,0.00,0,WeatherCatV1.12B45,2013-02-15 05:35:00,
2013-02-14 22:40:00,22.1,4.5,30.12,SSW,202,3.0,7.0,46,0.00,,,0.00,0,WeatherCatV1.12B45,2013-02-15 05:40:00,
2013-02-14 22:45:00,22.1,4.5,30.12,SSW,202,3.0,7.0,46,0.00,,,0.00,0,WeatherCatV1.12B45,2013-02-15 05:45:00,
2013-02-14 22:50:00,21.4,4.3,30.12,SSW,202,1.0,7.0,47,0.00,,,0.00,0,WeatherCatV1.12B45,2013-02-15 05:50:00,
2013-02-14 22:55:00,21.4,4.3,30.12,SSW,202,1.0,7.0,47,0.00,,,0.00,0,WeatherCatV1.12B45,2013-02-15 05:55:00,
2013-02-14 23:00:00,21.4,4.3,30.12,SSW,202,1.0,7.0,47,0.00,,,0.00,0,WeatherCatV1.12B45,2013-02-15 06:00:00,
2013-02-14 23:05:00,20.3,3.8,30.12,SSW,202,1.0,7.0,48,0.00,,,0.00,0,WeatherCatV1.12B45,2013-02-15 06:05:00,
2013-02-14 23:10:00,20.3,3.8,30.12,SSW,202,1.0,7.0,48,0.00,,,0.00,0,WeatherCatV1.12B45,2013-02-15 06:10:00,
2013-02-14 23:15:00,20.3,3.8,30.12,SSW,202,1.0,7.0,48,0.00,,,0.00,0,WeatherCatV1.12B45,2013-02-15 06:15:00,
2013-02-14 23:20:00,19.9,3.8,30.12,WSW,248,2.0,7.0,49,0.00,,,0.00,0,WeatherCatV1.12B45,2013-02-15 06:20:00,
2013-02-14 23:25:00,19.9,3.8,30.12,WSW,248,2.0,7.0,49,0.00,,,0.00,0,WeatherCatV1.12B45,2013-02-15 06:25:00,
2013-02-14 23:30:00,19.9,3.8,30.12,WSW,248,2.0,7.0,49,0.00,,,0.00,0,WeatherCatV1.12B45,2013-02-15 06:30:00,
2013-02-14 23:35:00,19.7,3.2,30.12,WSW,248,2.0,7.0,48,0.00,,,0.00,0,WeatherCatV1.12B45,2013-02-15 06:35:00,
2013-02-14 23:40:00,19.7,3.2,30.12,WSW,248,2.0,7.0,48,0.00,,,0.00,0,WeatherCatV1.12B45,2013-02-15 06:40:00,
2013-02-14 23:45:00,19.7,3.2,30.12,WSW,248,2.0,7.0,48,0.00,,,0.00,0,WeatherCatV1.12B45,2013-02-15 06:45:00,
2013-02-14 23:50:00,20.0,3.1,30.13,WNW,292,4.0,7.0,47,0.00,,,0.00,0,WeatherCatV1.12B45,2013-02-15 06:50:00,
2013-02-14 23:55:00,20.0,3.1,30.13,WNW,292,4.0,7.0,47,0.00,,,0.00,0,WeatherCatV1.12B45,2013-02-15 06:55:00,